H1 CPF 2 NER 2025 10 22 9 295 01 glonass135 H2 1600801 9135 41330 2025 10 22 0 0 0 2025 10 25 23 45 0 900 1 1 0 0 0 1 H9 10 0 60970 0.00000 0 11935757.787 -2212763.987 22456700.094 10 0 60970 900.00000 0 11008772.257 433325.763 23023991.993 10 0 60970 1800.00000 0 10270079.082 3182338.977 23145010.970 10 0 60970 2700.00000 0 9739833.873 5966646.279 22817216.453 10 0 60970 3600.00000 0 9425994.861 8716185.732 22046754.447 10 0 60970 4500.00000 0 9324055.798 11361137.935 20848355.526 10 0 60970 5400.00000 0 9417318.143 13834602.231 19245067.629 10 0 60970 6300.00000 0 9677692.294 16075163.750 17267827.270 10 0 60970 7200.00000 0 10066995.428 18029244.780 14954875.795 10 0 60970 8100.00000 0 10538692.399 19653142.323 12351030.461 10 0 60970 9000.00000 0 11040007.135 20914666.192 9506823.172 10 0 60970 9900.00000 0 11514315.690 21794308.200 6477522.702 10 0 60970 10800.00000 0 11903719.659 22285892.485 3322059.023 10 0 60970 11700.00000 0 12151690.213 22396678.768 101870.765 10 0 60970 12600.00000 0 12205669.511 22146913.578 -3120301.040 10 0 60970 13500.00000 0 12019517.479 21568848.132 -6281648.320 10 0 60970 14400.00000 0 11555698.282 20705264.535 -9320534.922 10 0 60970 15300.00000 0 10787111.727 19607573.250 -12177713.300 10 0 60970 16200.00000 0 9698490.075 18333563.279 -14797493.625 10 0 60970 17100.00000 0 8287299.417 16944901.464 -17128841.008 10 0 60970 18000.00000 0 6564106.178 15504487.975 -19126378.259 10 0 60970 18900.00000 0 4552392.351 14073780.956 -20751273.881 10 0 60970 19800.00000 0 2287826.728 12710204.212 -21971997.699 10 0 60970 20700.00000 0 -182977.407 11464747.835 -22764929.544 10 0 60970 21600.00000 0 -2804165.880 10379862.846 -23114809.746 10 0 60970 22500.00000 0 -5512736.994 9487737.905 -23015023.553 10 0 60970 23400.00000 0 -8240936.911 8809029.517 -22467715.059 10 0 60970 24300.00000 0 -10918856.968 8352097.493 -21483729.680 10 0 60970 25200.00000 0 -13477124.830 8112775.944 -20082387.489 10 0 60970 26100.00000 0 -15849577.781 8074687.342 -18291092.946 10 0 60970 27000.00000 0 -17975807.668 8210084.380 -16144789.570 10 0 60970 27900.00000 0 -19803472.715 8481182.305 -13685270.901 10 0 60970 28800.00000 0 -21290281.327 8841924.063 -10960361.684 10 0 60970 29700.00000 0 -22405566.980 9240102.673 -8022985.519 10 0 60970 30600.00000 0 -23131390.343 9619750.635 -4930137.183 10 0 60970 31500.00000 0 -23463124.507 9923695.271 -1741779.554 10 0 60970 32400.00000 0 -23409500.688 10096172.273 1480313.672 10 0 60970 33300.00000 0 -22992114.030 10085387.545 4673747.450 10 0 60970 34200.00000 0 -22244411.464 9845919.794 7776704.458 10 0 60970 35100.00000 0 -21210204.819 9340863.127 10729131.237 10 0 60970 36000.00000 0 -19941771.827 8543619.801 13473889.272 10 0 60970 36900.00000 0 -18497624.465 7439267.830 15957849.611 10 0 60970 37800.00000 0 -16940037.563 6025445.724 18132910.855 10 0 60970 38700.00000 0 -15332440.256 4312716.509 19956921.843 10 0 60970 39600.00000 0 -13736778.320 2324394.535 21394492.073 10 0 60970 40500.00000 0 -12210956.545 95840.565 22417674.958 10 0 60970 41400.00000 0 -10806466.902 -2326747.571 23006511.207 10 0 60970 42300.00000 0 -9566300.736 -4888000.791 23149421.962 10 0 60970 43200.00000 0 -8523231.615 -7525434.256 22843443.850 10 0 60970 44100.00000 0 -7698540.373 -10171809.515 22094300.756 10 0 60970 45000.00000 0 -7101235.845 -12757707.313 20916309.858 10 0 60970 45900.00000 0 -6727804.437 -15214205.849 19332122.396 10 0 60970 46800.00000 0 -6562499.807 -17475554.353 17372302.576 10 0 60970 47700.00000 0 -6578161.436 -19481731.232 15074751.171 10 0 60970 48600.00000 0 -6737528.538 -21180780.174 12483983.375 10 0 60970 49500.00000 0 -6994994.730 -22530826.137 9650273.653 10 0 60970 50400.00000 0 -7298729.740 -23501685.968 6628683.252 10 0 60970 51300.00000 0 -7593078.436 -24076004.986 3477988.866 10 0 60970 52200.00000 0 -7821135.048 -24249870.668 259533.368 10 0 60970 53100.00000 0 -7927382.384 -24032876.592 -2963978.332 10 0 60970 54000.00000 0 -7860282.611 -23447633.285 -6129713.761 10 0 60970 54900.00000 0 -7574707.811 -22528746.357 -9175952.186 10 0 60970 55800.00000 0 -7034105.196 -21321305.314 -12043302.933 10 0 60970 56700.00000 0 -6212303.167 -19878947.514 -14675877.302 10 0 60970 57600.00000 0 -5094879.867 -18261580.049 -17022389.788 10 0 60970 58500.00000 0 -3680034.783 -16532856.956 -19037165.884 10 0 60970 59400.00000 0 -1978925.447 -14757519.362 -20681036.078 10 0 60970 60300.00000 0 -15454.265 -12998711.738 -21922098.304 10 0 60970 61200.00000 0 2174485.885 -11315387.941 -22736334.131 10 0 60970 62100.00000 0 4544275.631 -9759916.331 -23108067.229 10 0 60970 63000.00000 0 7038289.559 -8375984.241 -23030256.119 10 0 60970 63900.00000 0 9594000.827 -7196888.832 -22504616.568 10 0 60970 64800.00000 0 12144381.810 -6244284.548 -21541572.495 10 0 60970 65700.00000 0 14620500.540 -5527437.799 -20160037.520 10 0 60970 66600.00000 0 16954204.793 -5043017.898 -18387032.554 10 0 60970 67500.00000 0 19080782.457 -4775430.680 -16257147.803 10 0 60970 68400.00000 0 20941488.093 -4697678.472 -13811860.413 10 0 60970 69300.00000 0 22485831.462 -4772708.167 -11098721.592 10 0 60970 70200.00000 0 23673533.961 -4955188.942 -8170429.334 10 0 60970 71100.00000 0 24476072.886 -5193643.436 -5083804.901 10 0 60970 72000.00000 0 24877750.658 -5432841.757 -1898692.912 10 0 60970 72900.00000 0 24876245.947 -5616356.962 1323193.825 10 0 60970 73800.00000 0 24482625.098 -5689174.276 4519462.737 10 0 60970 74700.00000 0 23720814.556 -5600244.248 7628240.608 10 0 60970 75600.00000 0 22626557.205 -5304872.672 10589360.861 10 0 60970 76500.00000 0 21245896.672 -4766846.967 13345516.853 10 0 60970 77400.00000 0 19633252.989 -3960209.801 15843359.731 10 0 60970 78300.00000 0 17849169.602 -2870605.316 18034520.610 10 0 60970 79200.00000 0 15957825.040 -1496140.992 19876538.331 10 0 60970 80100.00000 0 14024412.089 152271.941 21333675.729 10 0 60970 81000.00000 0 12112492.575 2051115.250 22377609.403 10 0 60970 81900.00000 0 10281436.848 4164991.311 22987980.186 10 0 60970 82800.00000 0 8584053.583 6447853.506 23152793.783 10 0 60970 83700.00000 0 7064507.833 8844690.635 22868663.669 10 0 60970 84600.00000 0 5756613.552 11293597.752 22140890.866 10 0 60970 85500.00000 0 4682571.650 13728149.571 20983378.060 10 0 60971 0.00000 0 3852206.495 16079979.489 19418378.503 10 0 60971 900.00000 0 3262732.816 18281459.588 17476082.087 10 0 60971 1800.00000 0 2899064.478 20268367.699 15194047.132 10 0 60971 2700.00000 0 2734651.383 21982434.677 12616484.565 10 0 60971 3600.00000 0 2732811.044 23373661.955 9793409.018 10 0 60971 4500.00000 0 2848498.584 24402312.731 6779671.665 10 0 60971 5400.00000 0 3030440.485 25040491.890 3633893.255 10 0 60971 6300.00000 0 3223541.392 25273246.939 417318.159 10 0 60971 7200.00000 0 3371461.042 25099142.280 -2807387.611 10 0 60971 8100.00000 0 3419250.738 24530281.584 -5977369.902 10 0 60971 9000.00000 0 3315935.719 23591776.579 -9030826.027 10 0 60971 9900.00000 0 3016931.953 22320684.454 -11908224.612 10 0 60971 10800.00000 0 2486192.799 20764458.924 -14553480.301 10 0 60971 11700.00000 0 1697992.662 18978980.982 -16915058.929 10 0 60971 12600.00000 0 638270.449 17026253.317 -18946990.359 10 0 60971 13500.00000 0 -694525.271 14971856.658 -20609768.499 10 0 60971 14400.00000 0 -2289125.989 12882276.095 -21871120.570 10 0 60971 15300.00000 0 -4121681.430 10822210.639 -22706630.779 10 0 60971 16200.00000 0 -6156536.281 8851979.347 -23100206.767 10 0 60971 17100.00000 0 -8347512.777 7025132.704 -23044380.629 10 0 60971 18000.00000 0 -10639645.061 5386368.654 -22540439.736 10 0 60971 18900.00000 0 -12971292.429 3969839.273 -21598386.028 10 0 60971 19800.00000 0 -15276542.901 2797917.142 -20236725.777 10 0 60971 20700.00000 0 -17487806.639 1880470.880 -18482095.030 10 0 60971 21600.00000 0 -19538491.155 1214677.674 -16368728.998 10 0 60971 22500.00000 0 -21365647.159 785378.114 -13937786.460 10 0 60971 23400.00000 0 -22912475.356 565955.984 -11236542.895 10 0 60971 24300.00000 0 -24130590.579 519703.849 -8317468.371 10 0 60971 25200.00000 0 -24981949.948 601615.193 -5237208.242 10 0 60971 26100.00000 0 -25440365.803 760526.352 -2055486.433 10 0 60971 27000.00000 0 -25492541.541 941517.119 1166047.592 10 0 60971 27900.00000 0 -25138588.314 1088468.492 4365006.201 10 0 60971 28800.00000 0 -24392002.025 1146669.707 7479462.775 10 0 60971 29700.00000 0 -23279102.362 1065364.942 10449140.115 10 0 60971 30600.00000 0 -21837957.690 800132.779 13216565.918 10 0 60971 31500.00000 0 -20116840.751 314998.592 15728173.811 10 0 60971 32400.00000 0 -18172279.211 -415808.789 17935329.661 10 0 60971 33300.00000 0 -16066781.596 -1406530.147 19795264.320 10 0 60971 34200.00000 0 -13866332.337 -2659034.885 21271895.666 10 0 60971 35100.00000 0 -11637758.972 -4162502.345 22336524.850 10 0 60971 36000.00000 0 -9446079.706 -5893640.331 22968393.793 10 0 60971 36900.00000 0 -7351940.428 -7817433.744 23155093.339 10 0 60971 37800.00000 0 -5409246.636 -9888394.401 22892813.993 10 0 60971 38700.00000 0 -3663087.965 -12052262.439 22186433.735 10 0 60971 39600.00000 0 -2148041.232 -14248090.782 21049440.240 10 0 60971 40500.00000 0 -886922.549 -16410627.983 19503687.625 10 0 60971 41400.00000 0 109959.261 -18472901.864 17578990.896 10 0 60971 42300.00000 0 845016.300 -20368897.280 15312564.267 10 0 60971 43200.00000 0 1333052.850 -22036216.700 12748312.715 10 0 60971 44100.00000 0 1600407.503 -23418612.186 9935989.117 10 0 60971 45000.00000 0 1683601.976 -24468281.947 6930232.447 10 0 60971 45900.00000 0 1627553.496 -25147833.905 3789505.207 10 0 60971 46800.00000 0 1483426.665 -25431832.296 574950.821 10 0 60971 47700.00000 0 1306216.484 -25307860.597 -2650806.143 10 0 60971 48600.00000 0 1152166.195 -24777054.588 -5824892.503 10 0 60971 49500.00000 0 1076131.013 -23854081.877 -8885426.333 10 0 60971 50400.00000 0 1129001.490 -22566568.057 -11772738.336 10 0 60971 51300.00000 0 1355297.736 -20953993.409 -14430549.275 10 0 60971 52200.00000 0 1791038.442 -19066106.942 -16807079.033 10 0 60971 53100.00000 0 2461976.672 -16960925.184 -18856064.413 10 0 60971 54000.00000 0 3382278.473 -14702400.860 -20537665.046 10 0 60971 54900.00000 0 4553701.111 -12357860.389 -21819239.408 10 0 60971 55800.00000 0 5965306.182 -9995318.670 -22675975.890 10 0 60971 56700.00000 0 7593719.859 -7680784.252 -23091367.176 10 0 60971 57600.00000 0 9403929.204 -5475667.891 -23057519.533 10 0 60971 58500.00000 0 11350580.784 -3434402.448 -22575292.062 10 0 60971 59400.00000 0 13379726.679 -1602372.658 -21654264.420 10 0 60971 60300.00000 0 15430944.383 -14239.662 -20312534.811 10 0 60971 61200.00000 0 17439741.570 1307271.687 -18576353.321 10 0 60971 62100.00000 0 19340145.077 2352074.509 -16479598.693 10 0 60971 63000.00000 0 21067366.063 3122883.828 -14063109.495 10 0 60971 63900.00000 0 22560430.331 3634838.552 -11373883.256 10 0 60971 64800.00000 0 23764664.590 3914599.855 -8464159.547 10 0 60971 65700.00000 0 24633935.593 3998966.039 -5390404.915 10 0 60971 66600.00000 0 25132549.583 3933063.882 -2212219.454 10 0 60971 67500.00000 0 25236733.667 3768193.849 1008814.007 10 0 60971 68400.00000 0 24935638.263 3559420.729 4210316.115 10 0 60971 69300.00000 0 24231819.548 3363011.479 7330310.104 10 0 60971 70200.00000 0 23141182.406 3233828.194 10308411.239 10 0 60971 71100.00000 0 21692386.588 3222785.706 13086984.384 10 0 60971 72000.00000 0 19925740.826 3374480.424 15612248.170 10 0 60971 72900.00000 0 17891630.605 3725089.834 17835305.391 10 0 60971 73800.00000 0 15648544.285 4300630.794 19713080.733 10 0 60971 74700.00000 0 13260778.660 5115649.945 21209148.592 10 0 60971 75600.00000 0 10795918.011 6172401.824 22294435.768 10 0 60971 76500.00000 0 8322189.952 7460550.231 22947786.002 10 0 60971 77400.00000 0 5905806.440 8957406.992 23156375.622 10 0 60971 78300.00000 0 3608399.056 10628700.139 22915972.088 10 0 60971 79200.00000 0 1484653.938 12429841.735 22231029.843 10 0 60971 80100.00000 0 -419756.073 14307644.751 21114620.616 10 0 60971 81000.00000 0 -2069856.494 16202419.586 19588198.206 10 0 60971 81900.00000 0 -3442603.363 18050364.596 17681200.716 10 0 60971 82800.00000 0 -4527610.833 19786152.151 15430496.329 10 0 60971 83700.00000 0 -5327343.402 21345602.840 12879681.752 10 0 60971 84600.00000 0 -5856764.253 22668335.991 10078245.604 10 0 60971 85500.00000 0 -6142454.111 23700284.776 7080611.995 10 0 60972 0.00000 0 -6221237.581 24395969.131 3945082.714 10 0 60972 900.00000 0 -6138375.149 24720429.723 732696.865 10 0 60972 1800.00000 0 -5945397.824 24650738.919 -2493964.976 10 0 60972 2700.00000 0 -5697677.278 24177024.598 -5672013.378 10 0 60972 3600.00000 0 -5451835.730 23302961.059 -8739489.862 10 0 60972 4500.00000 0 -5263107.231 22045705.577 -11636589.723 10 0 60972 5400.00000 0 -5182764.126 20435282.461 -14306842.160 10 0 60972 6300.00000 0 -5255719.652 18513440.333 -16698223.169 10 0 60972 7200.00000 0 -5518410.012 16332030.963 -18764178.285 10 0 60972 8100.00000 0 -5997046.991 13950978.426 -20464534.386 10 0 60972 9000.00000 0 -6706316.008 11435924.631 -21766282.440 10 0 60972 9900.00000 0 -7648575.208 8855650.802 -22644215.979 10 0 60972 10800.00000 0 -8813589.512 6279383.524 -23081413.376 10 0 60972 11700.00000 0 -10178810.661 3774098.336 -23069555.378 10 0 60972 12600.00000 0 -11710191.019 1401933.388 -22609072.750 10 0 60972 13500.00000 0 -13363496.340 -782179.571 -21709122.381 10 0 60972 14400.00000 0 -15086061.813 -2732569.299 -20387393.497 10 0 60972 15300.00000 0 -16818917.191 -4414480.326 -18669748.892 10 0 60972 16200.00000 0 -18499191.615 -5805262.521 -16589709.126 10 0 60972 17100.00000 0 -20062697.252 -6895047.843 -14187790.511 10 0 60972 18000.00000 0 -21446583.684 -7686888.635 -11510710.353 10 0 60972 18900.00000 0 -22591952.284 -8196354.342 -8610475.267 10 0 60972 19800.00000 0 -23446321.716 -8450606.020 -5543370.445 10 0 60972 20700.00000 0 -23965842.090 -8486989.580 -2368869.530 10 0 60972 21600.00000 0 -24117165.921 -8351208.564 851513.931 10 0 60972 22500.00000 0 -23878898.408 -8095154.440 4055411.536 10 0 60972 23400.00000 0 -23242567.079 -7774486.411 7180799.053 10 0 60972 24300.00000 0 -22213070.777 -7446062.807 10167186.870 10 0 60972 25200.00000 0 -20808589.445 -7165332.026 12956779.619 10 0 60972 26100.00000 0 -19059958.403 -6983792.446 15495583.405 10 0 60972 27000.00000 0 -17009532.694 -6946627.645 17734440.231 10 0 60972 27900.00000 0 -14709587.959 -7090615.949 19629970.617 10 0 60972 28800.00000 0 -12220323.187 -7442401.902 21145407.119 10 0 60972 29700.00000 0 -9607546.881 -8017202.394 22251303.437 10 0 60972 30600.00000 0 -6940141.092 -8818002.309 22926105.952 10 0 60972 31500.00000 0 -4287406.917 -9835274.517 23156576.856 10 0 60972 32400.00000 0 -1716400.013 -11047237.509 22938060.543 10 0 60972 33300.00000 0 710634.719 -12420641.844 22274587.523 10 0 60972 34200.00000 0 2938623.815 -13912054.669 21178812.848 10 0 60972 35100.00000 0 4921723.878 -15469590.763 19671788.959 10 0 60972 36000.00000 0 6624992.876 -17035019.703 17782575.758 10 0 60972 36900.00000 0 8025604.317 -18546162.504 15547693.810 10 0 60972 37800.00000 0 9113553.339 -19939478.410 13010429.723 10 0 60972 38700.00000 0 9891824.728 -21152733.736 10220005.756 10 0 60972 39600.00000 0 10376015.330 -22127640.396 7230628.841 10 0 60972 40500.00000 0 10593426.508 -22812352.288 4100436.963 10 0 60972 41400.00000 0 10581664.888 -23163713.007 890363.377 10 0 60972 42300.00000 0 10386810.852 -23149158.388 -2337058.631 10 0 60972 43200.00000 0 10061233.077 -22748191.740 -5518926.159 10 0 60972 44100.00000 0 9661142.860 -21953367.652 -8593206.938 10 0 60972 45000.00000 0 9243993.416 -20770741.282 -11499963.571 10 0 60972 45900.00000 0 8865836.176 -19219762.961 -14182536.302 10 0 60972 46800.00000 0 8578747.904 -17332621.835 -16588659.720 10 0 60972 47700.00000 0 8428439.388 -15153065.932 -18671490.361 10 0 60972 48600.00000 0 8452148.334 -12734748.507 -20390524.351 10 0 60972 49500.00000 0 8676906.655 -10139170.529 -21712386.805 10 0 60972 50400.00000 0 9118255.944 -7433306.281 -22611477.651 10 0 60972 51300.00000 0 9779465.478 -4687012.050 -23070461.764 10 0 60972 52200.00000 0 10651285.452 -1970326.607 -23080594.728 10 0 60972 53100.00000 0 11712245.205 649223.734 -22641878.886 10 0 60972 54000.00000 0 12929483.115 3109203.497 -21763047.859 10 0 60972 54900.00000 0 14260072.381 5354623.339 -20461381.017 10 0 60972 55800.00000 0 15652786.164 7339975.528 -18762352.627 10 0 60972 56700.00000 0 17050227.292 9030866.673 -16699123.505 10 0 60972 57600.00000 0 18391232.697 10405181.950 -14311885.834 10 0 60972 58500.00000 0 19613451.477 11453734.734 -11647074.503 10 0 60972 59400.00000 0 20655988.504 12180377.115 -8756460.693 10 0 60972 60300.00000 0 21462003.019 12601569.269 -5696145.494 10 0 60972 61200.00000 0 21981153.745 12745427.989 -2525473.153 10 0 60972 62100.00000 0 22171788.615 12650296.279 694115.140 10 0 60972 63000.00000 0 22002788.018 12362895.554 3900265.033 10 0 60972 63900.00000 0 21454984.944 11936139.066 7030907.868 10 0 60972 64800.00000 0 20522102.978 11426698.999 10025452.043 10 0 60972 65700.00000 0 19211173.104 10892429.548 12825944.630 10 0 60972 66600.00000 0 17542411.725 10389754.058 15378181.615 10 0 60972 67500.00000 0 15548564.450 9971125.505 17632746.322 10 0 60972 68400.00000 0 13273742.062 9682666.445 19545956.922 10 0 60972 69300.00000 0 10771795.831 9562087.022 21080705.636 10 0 60972 70200.00000 0 8104298.115 9636968.165 22207174.236 10 0 60972 71100.00000 0 5338210.305 9923482.067 22903412.570 10 0 60972 72000.00000 0 2543333.007 10425604.160 23155769.142 10 0 60972 72900.00000 0 -210357.616 11134850.612 22959165.320 10 0 60972 73800.00000 0 -2855378.537 12030553.812 22317207.257 10 0 60972 74700.00000 0 -5329304.199 13080666.102 21242132.461 10 0 60972 75600.00000 0 -7577120.993 14243060.003 19754590.681 10 0 60972 76500.00000 0 -9553274.545 15467272.408 17883261.847 10 0 60972 77400.00000 0 -11223324.673 16696621.258 15664316.782 10 0 60972 78300.00000 0 -12565138.764 17870607.107 13140729.572 10 0 60972 79200.00000 0 -13569573.246 18927499.379 10361453.506 10 0 60972 80100.00000 0 -14240614.039 19806998.539 7380475.606 10 0 60972 81000.00000 0 -14594969.652 20452861.434 4255767.564 10 0 60972 81900.00000 0 -14661133.840 20815377.915 1048153.448 10 0 60972 82800.00000 0 -14477957.428 20853592.521 -2179883.211 10 0 60972 83700.00000 0 -14092790.210 20537175.493 -5365428.720 10 0 60972 84600.00000 0 -13559272.461 19847862.041 -8446379.599 10 0 60972 85500.00000 0 -12934870.909 18780397.205 -11362668.217 10 0 60973 0.00000 0 -12278265.176 17342944.978 -14057447.909 10 0 60973 900.00000 0 -11646696.779 15556942.431 -16478214.395 10 0 60973 1800.00000 0 -11093395.475 13456406.296 -18577836.753 10 0 60973 2700.00000 0 -10665192.133 11086718.405 -20315481.875 10 0 60973 3600.00000 0 -10400421.018 8502942.955 -21657410.247 10 0 60973 4500.00000 0 -10327200.380 5767745.885 -22577629.104 10 0 60973 5400.00000 0 -10462164.086 2949004.058 -23058390.426 10 0 60973 6300.00000 0 -10809697.419 117204.587 -23090524.895 10 0 60973 7200.00000 0 -11361708.483 -2657256.949 -22673606.332 10 0 60973 8100.00000 0 -12097943.794 -5306766.901 -21815944.608 10 0 60973 9000.00000 0 -12986833.608 -7769061.137 -20534408.355 10 0 60973 9900.00000 0 -13986830.227 -9989563.915 -18854082.047 10 0 60973 10800.00000 0 -15048181.957 -11923402.236 -16807765.133 10 0 60973 11700.00000 0 -16115067.297 -13537013.726 -14435323.733 10 0 60973 12600.00000 0 -17127999.091 -14809283.262 -11782908.153 10 0 60973 13500.00000 0 -18026397.327 -15732163.372 -8902051.803 10 0 60973 14400.00000 0 -18751222.495 -16310754.985 -5848669.227 10 0 60973 15300.00000 0 -19247559.142 -16562847.477 -2681972.764 10 0 60973 16200.00000 0 -19467041.524 -16517939.404 536671.309 10 0 60973 17100.00000 0 -19370020.056 -16215782.645 3744925.285 10 0 60973 18000.00000 0 -18927378.157 -15704512.312 6880678.692 10 0 60973 18900.00000 0 -18121923.685 -15038441.671 9883240.564 10 0 60973 19800.00000 0 -16949296.851 -14275614.936 12694502.998 10 0 60973 20700.00000 0 -15418356.448 -13475220.543 15260054.371 10 0 60973 21600.00000 0 -13551027.749 -12694973.046 17530221.670 10 0 60973 22500.00000 0 -11381617.433 -11988572.834 19461022.811 10 0 60973 23400.00000 0 -8955622.766 -11403349.523 21015011.468 10 0 60973 24300.00000 0 -6328082.890 -10978187.271 22161998.899 10 0 60973 25200.00000 0 -3561538.726 -10741818.601 22879639.423 10 0 60973 26100.00000 0 -723684.165 -10711558.264 23153868.446 10 0 60973 27000.00000 0 2115196.158 -10892530.652 22979184.477 10 0 60973 27900.00000 0 4884898.145 -11277424.022 22358769.118 10 0 60973 28800.00000 0 7517969.397 -11846783.132 21304441.762 10 0 60973 29700.00000 0 9952270.628 -12569829.587 19836448.584 10 0 60973 30600.00000 0 12133321.694 -13405777.177 17983088.345 10 0 60973 31500.00000 0 14016334.887 -14305588.563 15780180.629 10 0 60973 32400.00000 0 15567850.617 -15214100.809 13270385.189 10 0 60973 33300.00000 0 16766906.727 -16072431.192 10502384.219 10 0 60973 34200.00000 0 17605691.823 -16820562.220 7529942.398 10 0 60973 35100.00000 0 18089654.591 -17399996.501 4410862.415 10 0 60973 36000.00000 0 18237064.017 -17756368.404 1205856.221 10 0 60973 36900.00000 0 18078038.798 -17841900.676 -2022645.471 10 0 60973 37800.00000 0 17653087.171 -17617600.264 -5211721.286 10 0 60973 38700.00000 0 17011219.421 -17055098.434 -8299199.602 10 0 60973 39600.00000 0 16207714.014 -16138055.307 -11224885.480 10 0 60973 40500.00000 0 15301633.218 -14863067.592 -13931748.562 10 0 60973 41400.00000 0 14353194.939 -13240039.652 -16367047.239 10 0 60973 42300.00000 0 13421113.575 -11292001.157 -18483365.892 10 0 60973 43200.00000 0 12560023.762 -9054378.381 -20239544.104 10 0 60973 44100.00000 0 11818096.991 -6573749.517 -21601479.306 10 0 60973 45000.00000 0 11234952.407 -3906136.404 -22542787.221 10 0 60973 45900.00000 0 10839950.056 -1114904.497 -23045307.671 10 0 60973 46800.00000 0 10650938.130 1731640.750 -23099446.731 10 0 60973 47700.00000 0 10673506.143 4562860.464 -22704349.553 10 0 60973 48600.00000 0 10900774.216 7308483.209 -21867901.686 10 0 60973 49500.00000 0 11313725.867 9901287.937 -20606560.057 10 0 60973 50400.00000 0 11882068.775 12279658.052 -18945018.015 10 0 60973 51300.00000 0 12565585.791 14389901.431 -16915711.970 10 0 60973 52200.00000 0 13315918.068 16188241.418 -14558179.997 10 0 60973 53100.00000 0 14078704.274 17642397.688 -11918285.527 10 0 60973 54000.00000 0 14795985.175 18732693.299 -9047321.636 10 0 60973 54900.00000 0 15408772.074 19452643.974 -6001013.519 10 0 60973 55800.00000 0 15859670.996 19809007.248 -2838438.610 10 0 60973 56700.00000 0 16095452.431 19821291.529 379114.836 10 0 60973 57600.00000 0 16069458.979 19520747.425 3589328.887 10 0 60973 58500.00000 0 15743750.107 18948884.979 6730054.325 10 0 60973 59400.00000 0 15090894.328 18155579.955 9740503.729 10 0 60973 60300.00000 0 14095333.832 17196848.978 12562416.916 10 0 60973 61200.00000 0 12754264.228 16132386.875 15141177.077 10 0 60973 62100.00000 0 11077992.192 15022969.040 17426856.993 10 0 60973 63000.00000 0 9089755.124 13927827.034 19375176.158 10 0 60973 63900.00000 0 6825009.062 12902106.534 20948351.198 10 0 60973 64800.00000 0 4330212.794 11994513.257 22115824.029 10 0 60973 65700.00000 0 1661156.683 11245244.702 22854854.248 10 0 60973 66600.00000 0 -1119096.552 10684293.871 23150964.577 10 0 60973 67500.00000 0 -3942575.913 10330195.883 22998230.655 10 0 60973 68400.00000 0 -6738975.168 10189270.320 22399409.051 10 0 60973 69300.00000 0 -9438329.978 10255391.789 21365900.087 10 0 60973 70200.00000 0 -11973689.509 10510299.423 19917544.909 10 0 60973 71100.00000 0 -14283672.602 10924433.660 18082259.204 10 0 60973 72000.00000 0 -16314802.614 11458266.514 15895508.996 10 0 60973 72900.00000 0 -18023523.678 12064070.651 13399637.075 10 0 60973 73800.00000 0 -19377813.787 12688053.717 10643051.694 10 0 60973 74700.00000 0 -20358326.475 13272768.343 7679292.235 10 0 60973 75600.00000 0 -20959012.434 13759696.025 4565989.416 10 0 60973 76500.00000 0 -21187194.142 14091894.927 1363740.161 10 0 60973 77400.00000 0 -21063089.837 14216598.346 -1865080.449 10 0 60973 78300.00000 0 -20618806.686 14087652.121 -5057546.042 10 0 60973 79200.00000 0 -19896845.933 13667685.787 -8151419.406 10 0 60973 80100.00000 0 -18948183.858 12929923.433 -11086380.696 10 0 60973 81000.00000 0 -17830010.805 11859555.618 -13805217.839 10 0 60973 81900.00000 0 -16603225.194 10454612.557 -16254954.374 10 0 60973 82800.00000 0 -15329789.997 8726300.308 -18387891.442 10 0 60973 83700.00000 0 -14070064.697 6698784.800 -20162542.716 10 0 60973 84600.00000 0 -12880226.571 4408432.226 -21544443.628 10 0 60973 85500.00000 0 -11809890.791 1902537.562 -22506819.073 99